When you browse on this site, cookies collect data to enhance your experience and personalize the content and advertising you see.
Visit our Privacy Policy to learn more. By continuing to use the site, you agree to this use of cookies and data.
EN

Hourly Weather Archib

Today, 29 September, Tuesday

Time Temperature Precipitation Wind Pressure Humidity
00:00 +8°C° 0 mm 1 mps 599 mmHg 88%
01:00 +8°C° 0 mm 1 mps 598 mmHg 88%
02:00 +7°C° 0 mm 1 mps 598 mmHg 87%
03:00 +7°C° 0 mm 1 mps 597 mmHg 85%
04:00 +7°C° 0 mm 1 mps 598 mmHg 83%
05:00 +7°C° 0 mm 1 mps 598 mmHg 82%
06:00 +7°C° 0 mm 1 mps 598 mmHg 80%
07:00 +9°C° 0 mm 1 mps 598 mmHg 73%
08:00 +11°C° 0 mm 1 mps 599 mmHg 65%
09:00 +13°C° 0 mm 1 mps 600 mmHg 57%
10:00 +14°C° 0 mm 2 mps 600 mmHg 56%
11:00 +14°C° 0 mm 2 mps 600 mmHg 55%
12:00 +14°C° 0 mm 3 mps 600 mmHg 53%
13:00 +14°C° 0 mm 2 mps 600 mmHg 58%
14:00 +14°C° 0 mm 2 mps 599 mmHg 62%
15:00 +14°C° 0 mm 2 mps 599 mmHg 66%
16:00 +12°C° 0 mm 2 mps 598 mmHg 74%
17:00 +11°C° 0 mm 1 mps 597 mmHg 81%
18:00 +9°C° 0 mm 1 mps 596 mmHg 88%
19:00 +9°C° 0 mm 1 mps 596 mmHg 88%
20:00 +8°C° 0 mm 1 mps 596 mmHg 88%
21:00 +7°C° 0 mm 1 mps 595 mmHg 87%
22:00 +7°C° 0 mm 1 mps 595 mmHg 86%
23:00 +7°C° 0 mm 1 mps 595 mmHg 85%

Tomorrow, 30 September, Wednesday

Time Temperature Precipitation Wind Pressure Humidity
00:00 +7°C° 0 mm 1 mps 594 mmHg 84%
01:00 +7°C° 0 mm 1 mps 594 mmHg 83%
02:00 +6°C° 0 mm 2 mps 594 mmHg 82%
03:00 +6°C° 0 mm 2 mps 593 mmHg 81%
04:00 +6°C° 0 mm 2 mps 593 mmHg 79%
05:00 +6°C° 0 mm 2 mps 593 mmHg 78%
06:00 +6°C° 0 mm 2 mps 593 mmHg 76%
07:00 +7°C° 0 mm 2 mps 594 mmHg 70%
08:00 +9°C° 0 mm 2 mps 594 mmHg 64%
09:00 +12°C° 0 mm 1 mps 595 mmHg 58%
10:00 +13°C° 0 mm 2 mps 595 mmHg 59%
11:00 +13°C° 0 mm 2 mps 595 mmHg 60%
12:00 +13°C° 0 mm 2 mps 595 mmHg 61%
13:00 +13°C° 0 mm 2 mps 595 mmHg 64%
14:00 +13°C° 0 mm 2 mps 594 mmHg 68%
15:00 +12°C° 0 mm 2 mps 594 mmHg 71%
16:00 +10°C° 0 mm 2 mps 594 mmHg 78%
17:00 +9°C° 0 mm 1 mps 593 mmHg 85%
18:00 +8°C° 0 mm 1 mps 592 mmHg 92%
19:00 +7°C° 0 mm 1 mps 592 mmHg 91%
20:00 +7°C° 0 mm 1 mps 592 mmHg 90%
21:00 +5°C° 0 mm 2 mps 592 mmHg 89%
22:00 +5°C° 0 mm 2 mps 592 mmHg 88%
23:00 +5°C° 0 mm 2 mps 592 mmHg 87%

Day after tomorrow, 1 October, Thursday

Time Temperature Precipitation Wind Pressure Humidity
00:00 +5°C° 0 mm 2 mps 592 mmHg 86%
01:00 +5°C° 0 mm 2 mps 592 mmHg 84%
02:00 +5°C° 0 mm 2 mps 592 mmHg 83%
03:00 +5°C° 0 mm 2 mps 592 mmHg 81%
04:00 +5°C° 0 mm 2 mps 592 mmHg 80%
05:00 +5°C° 0 mm 2 mps 592 mmHg 79%
06:00 +5°C° 0 mm 2 mps 592 mmHg 78%
07:00 +7°C° 0 mm 2 mps 593 mmHg 74%
08:00 +9°C° 0 mm 2 mps 594 mmHg 70%
09:00 +10°C° 0 mm 2 mps 595 mmHg 66%
10:00 +12°C° 0 mm 2 mps 595 mmHg 65%
11:00 +13°C° 0 mm 2 mps 596 mmHg 64%
12:00 +14°C° 0 mm 2 mps 596 mmHg 62%
13:00 +14°C° 0 mm 2 mps 596 mmHg 64%
14:00 +14°C° 0 mm 2 mps 596 mmHg 66%
15:00 +14°C° 0 mm 2 mps 595 mmHg 67%
16:00 +12°C° 0 mm 2 mps 595 mmHg 74%
17:00 +10°C° 0 mm 2 mps 594 mmHg 81%
18:00 +8°C° 0 mm 2 mps 593 mmHg 87%
19:00 +8°C° 0 mm 3 mps 593 mmHg 87%
20:00 +7°C° 0 mm 3 mps 594 mmHg 87%
21:00 +7°C° 0 mm 3 mps 594 mmHg 87%
22:00 +6°C° 0 mm 4 mps 594 mmHg 87%
23:00 +6°C° 0 mm 4 mps 593 mmHg 87%

2 October, Friday

Time Temperature Precipitation Wind Pressure Humidity
00:00 +6°C° 0 mm 4 mps 593 mmHg 87%
01:00 +7°C° 0 mm 4 mps 593 mmHg 85%
02:00 +8°C° 0 mm 3 mps 593 mmHg 82%
03:00 +8°C° 0 mm 3 mps 593 mmHg 80%
04:00 +8°C° 0 mm 3 mps 593 mmHg 78%
05:00 +8°C° 0 mm 3 mps 593 mmHg 77%
06:00 +8°C° 0 mm 3 mps 593 mmHg 76%
07:00 +10°C° 0 mm 3 mps 594 mmHg 70%
08:00 +11°C° 0 mm 3 mps 595 mmHg 63%
09:00 +13°C° 0 mm 3 mps 596 mmHg 57%
10:00 +14°C° 0 mm 3 mps 596 mmHg 55%
11:00 +16°C° 0 mm 3 mps 596 mmHg 53%
12:00 +16°C° 0 mm 3 mps 596 mmHg 51%
13:00 +16°C° 0 mm 3 mps 596 mmHg 53%
14:00 +14°C° 0 mm 3 mps 596 mmHg 55%
15:00 +14°C° 0 mm 3 mps 595 mmHg 57%
16:00 +12°C° 0 mm 3 mps 595 mmHg 66%
17:00 +10°C° 0 mm 2 mps 594 mmHg 75%
18:00 +9°C° 0 mm 2 mps 594 mmHg 84%
19:00 +9°C° 0 mm 1 mps 594 mmHg 86%
20:00 +9°C° 0 mm 1 mps 594 mmHg 89%
21:00 +8°C° 0 mm 1 mps 594 mmHg 92%
22:00 +8°C° 0 mm 1 mps 594 mmHg 92%
23:00 +8°C° 0 mm 1 mps 594 mmHg 93%

3 October, Saturday

Time Temperature Precipitation Wind Pressure Humidity
00:00 +8°C° 0 mm 1 mps 594 mmHg 93%
01:00 +8°C° 0 mm 1 mps 594 mmHg 92%
02:00 +7°C° 0 mm 1 mps 594 mmHg 91%
03:00 +7°C° 0 mm 1 mps 594 mmHg 90%
04:00 +7°C° 0 mm 1 mps 594 mmHg 86%
05:00 +7°C° 0 mm 1 mps 594 mmHg 83%
06:00 +6°C° 0 mm 1 mps 594 mmHg 79%
07:00 +8°C° 0 mm 1 mps 595 mmHg 72%
08:00 +11°C° 0 mm 1 mps 596 mmHg 64%
09:00 +13°C° 0 mm 1 mps 597 mmHg 57%
10:00 +13°C° 0.1 mm 2 mps 597 mmHg 59%
11:00 +14°C° 0.1 mm 2 mps 597 mmHg 61%
12:00 +14°C° 0.1 mm 2 mps 597 mmHg 63%
13:00 +14°C° 0.5 mm 2 mps 597 mmHg 66%
14:00 +13°C° 0.5 mm 2 mps 597 mmHg 69%
15:00 +13°C° 0.5 mm 1 mps 597 mmHg 72%
16:00 +12°C° 0.5 mm 1 mps 596 mmHg 78%
17:00 +10°C° 0.5 mm 1 mps 596 mmHg 85%
18:00 +8°C° 0.5 mm 0 mps 595 mmHg 91%
19:00 +8°C° 0.1 mm 0 mps 595 mmHg 91%
20:00 +8°C° 0.1 mm 0 mps 595 mmHg 91%
21:00 +7°C° 0.1 mm 0 mps 596 mmHg 91%
22:00 +8°C° 0 mm 1 mps 595 mmHg 90%
23:00 +8°C° 0 mm 1 mps 595 mmHg 90%

4 October, Sunday

Time Temperature Precipitation Wind Pressure Humidity
00:00 +8°C° 0 mm 1 mps 595 mmHg 89%
01:00 +7°C° 0 mm 1 mps 595 mmHg 86%
02:00 +6°C° 0 mm 2 mps 594 mmHg 84%
03:00 +6°C° 0 mm 2 mps 594 mmHg 81%
04:00 +6°C° 0 mm 2 mps 594 mmHg 80%
05:00 +5°C° 0 mm 2 mps 594 mmHg 78%
06:00 +5°C° 0 mm 2 mps 594 mmHg 77%
07:00 +8°C° 0 mm 1 mps 595 mmHg 70%
08:00 +10°C° 0 mm 1 mps 596 mmHg 63%
09:00 +12°C° 0 mm 1 mps 597 mmHg 56%
10:00 +13°C° 0 mm 1 mps 597 mmHg 56%
11:00 +14°C° 0 mm 2 mps 597 mmHg 55%
12:00 +15°C° 0 mm 2 mps 597 mmHg 55%
13:00 +14°C° 0.1 mm 2 mps 597 mmHg 56%
14:00 +14°C° 0.1 mm 2 mps 597 mmHg 58%
15:00 +14°C° 0.1 mm 2 mps 596 mmHg 60%
16:00 +12°C° 0.1 mm 1 mps 596 mmHg 70%
17:00 +11°C° 0.1 mm 1 mps 595 mmHg 79%
18:00 +9°C° 0.1 mm 1 mps 594 mmHg 89%
19:00 +8°C° 0 mm 1 mps 594 mmHg 88%
20:00 +8°C° 0 mm 1 mps 594 mmHg 88%
21:00 +8°C° 0 mm 1 mps 594 mmHg 87%
22:00 +7°C° 0 mm 2 mps 594 mmHg 87%
23:00 +6°C° 0 mm 2 mps 594 mmHg 87%
Show more